Sabadell Airport

Jump to: basic info | weather | runways | comments

Related pages: nearby airports | nearby navaids | notams | map

Basic information (top)

Codes: QSA LELL
Location: lon 41.520901, lat 2.105080, elev 485 ft / 148 m msl
Status: small_airport

Weather (top)

Current conditions (rec'd 2015/04/28 14:00Z):

LELL 281400Z 20009KT 150V220 9999 FEW040 20/09 Q1017

Airport forecast (rec'd 2015/04/28 09:00Z):

TAF LELL 280800Z 2809/2909 VRB03KT 9999 FEW020 TX21/2814Z TN08/2905Z 
      BECMG 2809/2811 13009KT 
      BECMG 2818/2821 VRB03KT

Runways (top)

13/31: 2,953 ft (900 m) — surface unknown — not lighted

Latest comments (top)

Sabadell: Any idea of the cost of avgas here? [read]

GA Pilots useful info: Last visit: summer 2014 Fuel: Avgas ... [read]

Great service, easy in & out: Here our expenses for 3 days in ... [read]

great service, great people: So going on a helicopter through spain ... [read]

More... (top)

See also NOTAMs and nearby airports and navaids, or visit the Sabadell Airport page at the main OurAirports website..